Tracking 19570 objects as of 22-Feb-2019
HD Live streaming from Space Station
objects crossing your sky now

GGSE 4

Track GGSE 4 now!
10-day predictions
GGSE 4 is classified as:


NORAD ID: 2828
Int'l Code: 1967-053C
Perigee: 905.6 km
Apogee: 914.2 km
Inclination: 70.0 °
Period: 103.0 minutes
Semi major axis: 7280 km
RCS: 0.9077 m2 (medium)
Launch date: May 31, 1967
Source: United States (US)
Launch site: AIR FORCE WESTERN TEST RANGE (AFWTR)
aabbcc
Your satellite tracking list
Your tracking list is empty




NASA's NSSDC Master Catalog

Two Line Element Set (TLE):
1  2828U 67053C   19052.18892771 -.00000036  00000-0  12493-4 0  9994
2  2828  69.9717  40.8366 0005910  23.7647 336.3731 13.97422417635204
Source of the keplerian elements: AFSPC